Regional Weather Roundup
Issued by NWS Cleveland, OH

Home | Current Version | Previous Version | Text Only | Print | Product List | Glossary On
Versions: 1 2 3 4 5 6 7 8 9 10 11 12 13 14 15 16 17 18 19 20 21 22 23 24 25 26 27 28 29 30 31 32 33 34 35 36 37 38 39 40 41 42 43 44 45 46 47 48 49 50
000
ASUS41 KCLE 250510
RWRCLE
OHIO REGIONAL WEATHER ROUNDUP
NATIONAL WEATHER SERVICE CLEVELAND, OH
100 AM EDT SAT APR 25 2015

NOTE: "FAIR" INDICATES FEW OR NO CLOUDS BELOW 12,000 FEET WITH NO
SIGNIFICANT WEATHER AND/OR OBSTRUCTIONS TO VISIBILITY.

OHZ001>008-015>018-024>027-034-035-043-044-250600-
   NORTHWEST OHIO

CITY           SKY/WX    TMP DP  RH WIND       PRES   REMARKS
DEFIANCE       CLOUDY    50  34  54 NE8       29.96S
FINDLAY        CLOUDY    50  33  52 E8        29.94S
TOLEDO EXPRESS CLOUDY    47  32  56 NE12      29.96F
TOLEDO EXEC    CLOUDY    46  32  58 NE9       29.99F
LIMA           CLOUDY    49  35  58 E7        29.92F
$$

OHZ009>014-019>023-028>033-038-089-250600-
   NORTHEAST OHIO

CITY           SKY/WX    TMP DP  RH WIND       PRES   REMARKS
CLE-HOPKINS    MOCLDY    43  21  41 E8        30.01S
CLE-LAKEFRONT  MOCLDY    44  20  38 E10       29.99F
CUY CO. ARPT   NOT AVBL
LORAIN-ELYRIA  CLOUDY    42  28  57 SE5       29.99S
ASHTABULA      PTCLDY    32  25  75 SE3       30.00F
AKRON-CANTON   CLOUDY    42  21  43 E8        29.98S
WOOSTER        CLOUDY    43  26  51 E10       29.98S
MANSFIELD      CLOUDY    46  27  47 SE6       29.97R
YOUNGSTOWN     PTCLDY    33  22  63 E6        29.99S WCI  28
$$

OHZ042-051>053-060>062-070>072-077>081-250600-
  SOUTHWEST OHIO

CITY           SKY/WX    TMP DP  RH WIND       PRES   REMARKS
CINC-COVINGTON CLOUDY    55  32  41 E7        29.88F
CINC-LUNKEN    CLOUDY    54  37  52 CALM      29.90F
HAMILTON       CLOUDY    54  37  52 E6        29.90F
DAYTON         LGT RAIN  52  34  50 SE6       29.92S
WRIGHT-PAT AFB CLOUDY    53  32  45 CALM      29.91F
DAYTON GENERAL CLOUDY    51  35  54 E5        29.90F
WILMINGTON     CLOUDY    50  34  54 E6        29.90F
$$

OHZ036-037-039>041-045>050-054>059-063>069-073>076-082>088-250600-
  CENTRAL AND SOUTHEAST OHIO

CITY           SKY/WX    TMP DP  RH WIND       PRES   REMARKS
COLUMBUS       CLOUDY    50  34  54 CALM      29.94F
OSU AIRPORT    CLOUDY    50  33  52 E3        29.93F
BOLTON FIELD   CLOUDY    49  37  63 CALM      29.94S
RICKENBACK AFB CLOUDY    48  39  71 CALM      29.93F
NEWARK         CLOUDY    47  35  63 CALM      29.94F
MARION         CLOUDY    47  34  60 E7        29.94F
LANCASTER      CLOUDY    48  39  71 CALM      29.94F
ZANESVILLE     CLOUDY    43  31  62 CALM      29.95F
NEW PHILLY     CLOUDY    46  28  49 SE3       29.99S
$$


USA.gov is the U.S. government's official web portal to all federal, state and local government web resources and services.